Regional Weather Roundup
Issued by NWS

Home | Current Version | Previous Version | Text Only | Print | Product List | Glossary On
Versions: 1 2 3 4 5 6 7 8 9 10 11 12 13 14 15 16 17 18 19 20 21 22 23 24 25 26 27
000
ASUS45 KSLC 170710
RWRUT

UTAH REGIONAL WEATHER ROUNDUP
NATIONAL WEATHER SERVICE SALT LAKE CITY UT
100 AM MDT THU AUG 17 2017

UTZ001>011-023>025-170800-

NORTHERN UTAH

CITY           SKY/WX    TMP DP  RH WIND       PRES   REMARKS
BRIGHAM CITY   PTCLDY    67  44  44 NW5       30.07R
HILL AFB       PTCLDY    68  36  31 E14       30.09S
LOGAN          PTCLDY    60  49  66 CALM      30.08R
OGDEN          PTCLDY    67  39  35 S8        30.06S
SALT LAKE CITY PTCLDY    72  40  31 SE6       30.05S
TOOELE VALLEY  PTCLDY    66  39  37 S6        30.07S
WENDOVER       PTCLDY    70  42  36 NE7       30.05
HEBER CITY     PTCLDY    50  41  71 CALM      30.18R
WEST JORDAN    PTCLDY    69  48  46 SW5       30.10R

$$

UTZ011>015-024>027-170800-

CENTRAL/NORTHEAST UTAH

CITY           SKY/WX    TMP DP  RH WIND       PRES   REMARKS
PROVO AIRPORT  PTCLDY    63  44  50 SE3       30.10R
MOAB/CANYONLAN PTCLDY    70  30  22 CALM      30.06R
DELTA          PTCLDY    64  37  36 S7        30.10S
PRICE          PTCLDY    61  41  47 CALM      30.18R
ROOSEVELT      CLEAR     55  46  71 W3        30.18S
VERNAL         CLEAR     63  44  50 NW7       30.15R

$$

UTZ013>016-019>022-027-170800-

SOUTHERN UTAH

CITY           SKY/WX    TMP DP  RH WIND       PRES   REMARKS
BRYCE CANYON   CLEAR     48  38  68 W5        30.32S
CEDAR CITY     CLEAR     63  39  41 SE7       30.17R
MILFORD        CLEAR     66  36  32 W12       30.12S
ST GEORGE      MOSUNNY   76  41  28 S5        29.98R
HANKSVILLE     PTCLDY    70  34  26 CALM      30.09R
BLANDING       CLEAR     60  29  31 NW9       30.23S

$$

REGIONAL REPORTS     COLORADO/ARIZONA

CITY           SKY/WX    TMP DP  RH WIND       PRES   REMARKS
CRAIG, CO      CLOUDY    51  41  68 E3        30.22R
GRAND JUNCTION CLEAR     66  40  38 W5        30.11R
RIFLE, CO      CLEAR     62  40  44 SE5       30.17R
MONTROSE, CO   CLEAR     60  38  43 SE13      30.19F
CORTEZ, CO     CLEAR     51  35  54 NE5       30.20R
COLORADO CITY    N/A     57  46  67 SE6       30.15S
PAGE, AZ       NOT AVBL
GRAND CANYON   CLEAR     48  36  63 CALM      30.27R
KINGMAN, AZ    CLEAR     68  36  30 SE8       30.03R
FLAGSTAFF, AZ  CLEAR     49  41  74 CALM      30.30S

$$

REGIONAL REPORTS    NEVADA/IDAHO/WYOMING

CITY           SKY/WX    TMP DP  RH WIND       PRES   REMARKS
LAS VEGAS, NV  PTCLDY    85  39  19 SW3       29.91R
ELY, NY        CLEAR     49  43  80 S10       30.23S
ELKO, NV       PTCLDY    62  38  40 NE3       30.12R
POCATELLO, ID  CLEAR     68  37  32 S8        30.07R
BURLEY, ID     CLEAR     60  44  55 S9        30.05S
FORT BRIDGER,    N/A     63  34  34 SW9       30.28S
EVANSTON, WY   CLOUDY    57  39  51 S6        30.26S
ROCK SPRINGS,  CLEAR     60  37  42 SW10      30.22R
KEMMERER, WY     N/A     54  37  54 NW5       30.27R

$$




USA.gov is the U.S. government's official web portal to all federal, state and local government web resources and services.